CW5444 Weather Reports


Display with metric or nautical units.
time (UTC)temp
F
wind
direction
speed
MPH
gust
MPH
rain 1hr
in
rain 24hr
in
rain mn
in
humidity
%
barometer
mb
20260906085434 67 187 0.0 0.0 0.00 0.07 0.00 95 1014.6
20260906084420 67 187 0.0 2.0 0.00 0.07 0.00 95 1014.5
20260906083427 67 187 0.0 2.0 0.00 0.07 0.00 94 1014.5
20260906082424 67 187 0.0 0.0 0.00 0.07 0.00 95 1014.5
20260906081417 67 187 1.0 2.0 0.00 0.07 0.00 94 1014.4
20260906080424 67 187 0.0 0.0 0.00 0.07 0.00 94 1014.4
20260906075433 67 187 0.0 0.0 0.00 0.08 0.00 94 1014.6
20260906074440 67 187 0.0 0.0 0.00 0.08 0.00 94 1014.6
20260906073426 67 187 0.0 0.0 0.00 0.08 0.00 94 1014.7
20260906072432 67 187 0.0 0.0 0.00 0.08 0.00 94 1014.8
20260906071421 67 187 0.0 0.0 0.00 0.08 0.00 94 1014.9
20260906070428 67 187 0.0 1.0 0.00 0.08 0.00 94 1015.1
20260906065456 67 187 1.0 2.0 0.00 0.08 0.00 94 1014.9
20260906064423 66 187 0.0 0.0 0.00 0.08 0.00 94 1014.9
20260906063432 66 187 0.0 0.0 0.00 0.08 0.00 94 1015.0
20260906062421 66 187 0.0 0.0 0.00 0.08 0.00 94 1014.8
20260906061430 66 187 0.0 0.0 0.00 0.08 0.00 94 1014.8
20260906060419 66 187 0.0 0.0 0.00 0.08 0.00 93 1015.3
20260906055427 66 187 0.0 0.0 0.00 0.08 0.00 93 1015.3
20260906054433 67 187 0.0 0.0 0.00 0.08 0.00 93 1015.5
20260906053441 67 187 0.0 0.0 0.00 0.08 0.00 93 1015.5
20260906052426 67 187 0.0 0.0 0.00 0.08 0.00 93 1015.6
20260906051432 67 187 0.0 0.0 0.00 0.08 0.00 93 1015.8
20260906050439 67 187 0.0 0.0 0.00 0.08 0.00 93 1015.7
20260906045423 67 187 0.0 0.0 0.00 0.08 0.00 93 1015.6
20260906044430 67 187 0.0 0.0 0.00 0.08 0.00 93 1015.7
20260906043421 67 187 0.0 0.0 0.00 0.08 0.00 93 1015.8
20260906042427 67 187 0.0 0.0 0.00 0.08 0.00 93 1015.6
20260906041415 67 187 0.0 0.0 0.00 0.08 0.00 92 1015.5
20260906040421 68 187 0.0 0.0 0.00 0.08 0.00 92 1015.6
20260906035448 68 187 0.0 0.0 0.00 0.08 0.08 92 1015.6
20260906034434 68 187 0.0 0.0 0.00 0.08 0.08 92 1015.5
20260906033422 68 187 0.0 0.0 0.00 0.08 0.08 92 1015.5
20260906032449 69 187 0.0 0.0 0.00 0.08 0.08 92 1015.6
20260906031434 69 187 0.0 0.0 0.00 0.08 0.08 92 1015.6
20260906030420 69 187 0.0 0.0 0.00 0.08 0.08 91 1015.7
20260906025429 69 187 0.0 0.0 0.00 0.08 0.08 91 1015.7
20260906024421 69 187 0.0 0.0 0.00 0.08 0.08 91 1015.6
20260906023428 70 187 0.0 0.0 0.00 0.08 0.08 91 1015.8
20260906022435 70 187 0.0 0.0 0.00 0.08 0.08 91 1015.8
20260906021424 70 187 0.0 0.0 0.00 0.08 0.08 91 1015.8
20260906020431 70 187 0.0 0.0 0.00 0.08 0.08 90 1015.8
20260906015438 70 187 0.0 0.0 0.00 0.08 0.08 90 1015.7
20260906014421 71 187 0.0 0.0 0.00 0.08 0.08 90 1015.6
20260906013427 71 187 0.0 0.0 0.00 0.08 0.08 90 1015.8
20260906012417 71 187 0.0 0.0 0.00 0.08 0.08 89 1015.5
20260906011423 72 187 0.0 0.0 0.00 0.08 0.08 89 1015.3
20260906010431 72 187 0.0 0.0 0.00 0.08 0.08 88 1015.1
20260906005419 73 187 0.0 0.0 0.00 0.08 0.08 88 1015.1
20260906004425 73 187 0.0 0.0 0.00 0.08 0.08 87 1015.0
20260906003451 74 187 0.0 0.0 0.00 0.08 0.08 86 1015.0
20260906002435 74 187 0.0 0.0 0.00 0.08 0.08 85 1015.0
20260906001421 75 187 0.0 0.0 0.00 0.08 0.08 84 1014.8
20260906000450 76 187 0.0 0.0 0.00 0.08 0.08 82 1014.7
20260905235437 78 187 0.0 0.0 0.00 0.08 0.08 80 1014.7
20260905234422 79 187 0.0 0.0 0.00 0.08 0.08 79 1014.6
20260905233429 80 187 0.0 1.0 0.00 0.08 0.08 77 1014.5
20260905232415 81 187 1.0 2.0 0.00 0.08 0.08 75 1014.6
20260905231420 81 187 1.0 3.0 0.00 0.08 0.08 74 1014.6
20260905230425 81 187 0.0 3.0 0.00 0.08 0.08 73 1014.6
20260905225431 82 187 2.0 5.0 0.00 0.12 0.08 72 1014.8
20260905224422 82 191 2.0 5.0 0.00 0.12 0.08 72 1014.8
20260905223450 83 188 2.0 5.0 0.00 0.12 0.08 72 1015.0
20260905222417 83 184 1.0 5.0 0.00 0.12 0.08 71 1014.8
20260905221444 84 178 1.0 4.0 0.00 0.12 0.08 71 1015.0
20260905220432 83 182 2.0 4.0 0.00 0.12 0.08 68 1015.0
20260905215419 83 184 2.0 3.0 0.00 0.12 0.08 72 1015.0
20260905214427 83 185 0.0 2.0 0.00 0.12 0.08 71 1014.8
20260905213434 83 185 3.0 5.0 0.00 0.12 0.08 71 1014.7
20260905212442 83 188 1.0 5.0 0.00 0.12 0.08 71 1014.7
20260905211426 83 189 3.0 7.0 0.00 0.12 0.08 71 1014.7
20260905210431 83 165 4.0 8.0 0.00 0.12 0.08 70 1014.7
20260905205417 83 195 3.0 7.0 0.00 0.47 0.08 70 1014.7
20260905204429 83 192 3.0 8.0 0.00 0.47 0.08 70 1014.6
20260905203418 82 175 4.0 8.0 0.00 0.47 0.08 70 1014.6
20260905202427 82 198 4.0 8.0 0.00 0.47 0.08 70 1014.5
20260905201454 82 153 3.0 7.0 0.00 0.47 0.08 71 1014.5
20260905200423 81 196 3.0 7.0 0.00 0.47 0.08 73 1014.6
20260905195433 80 181 3.0 7.0 0.00 0.47 0.08 73 1014.8
20260905194439 80 194 3.0 7.0 0.00 0.47 0.08 74 1014.7
20260905193424 79 168 3.0 7.0 0.00 0.47 0.08 75 1014.8
20260905192431 78 176 2.0 5.0 0.00 0.47 0.08 78 1014.8
20260905191419 76 195 3.0 6.0 0.00 0.47 0.08 78 1015.0
20260905190426 74 192 2.0 5.0 0.00 0.47 0.08 80 1015.1
20260905185439 74 186 1.0 5.0 0.00 0.47 0.08 82 1015.4
20260905184425 74 167 2.0 5.0 0.00 0.47 0.08 83 1015.8
20260905183432 73 196 4.0 7.0 0.00 0.47 0.08 85 1015.9
20260905182417 73 210 2.0 4.0 0.00 0.47 0.08 85 1016.3
20260905181424 72 202 2.0 6.0 0.00 0.47 0.08 84 1016.5
20260905180428 72 192 3.0 5.0 0.00 0.47 0.08 86 1016.8
20260905175434 72 198 2.0 4.0 0.00 0.47 0.08 88 1017.0
20260905174423 71 200 0.0 4.0 0.00 0.47 0.08 89 1016.9
20260905173430 71 269 0.0 2.0 0.00 0.47 0.08 89 1017.2
20260905172417 70 268 0.0 2.0 0.01 0.47 0.08 90 1017.2
20260905171421 70 269 1.0 3.0 0.01 0.47 0.08 90 1018.0
20260905170429 70 333 3.0 6.0 0.02 0.47 0.08 90 1017.9
20260905165440 70 360 0.0 2.0 0.02 0.47 0.08 90 1017.6
20260905164426 70 5 0.0 3.0 0.02 0.47 0.08 89 1018.1
20260905163452 70 24 1.0 3.0 0.06 0.47 0.08 89 1018.2
20260905162417 70 134 0.0 1.0 0.06 0.46 0.07 88 1018.5
20260905161424 70 342 0.0 1.0 0.06 0.46 0.07 87 1018.6
20260905160433 71 342 2.0 7.0 0.05 0.45 0.06 85 1018.4
20260905155420 71 211 1.0 10.0 0.05 0.45 0.06 84 1018.5
20260905154448 72 261 5.0 17.0 0.05 0.45 0.06 81 1018.5
20260905153416 77 202 8.0 22.0 0.00 0.40 0.01 74 1018.8
20260905152425 78 174 2.0 4.0 0.00 0.40 0.01 84 1017.7
20260905151455 79 194 1.0 6.0 0.00 0.40 0.01 85 1017.7
20260905150419 78 184 2.0 6.0 0.00 0.40 0.01 86 1017.7
20260905145431 77 189 4.0 8.0 0.00 0.40 0.01 89 1017.3
20260905144416 75 188 2.0 5.0 0.00 0.40 0.01 92 1017.2
20260905143421 74 186 0.0 3.0 0.00 0.40 0.01 94 1017.0
20260905142450 73 186 0.0 5.0 0.00 0.40 0.01 95 1017.2
20260905141419 73 188 1.0 4.0 0.00 0.40 0.01 95 1017.3
20260905140425 72 192 0.0 3.0 0.00 0.40 0.01 95 1017.4
20260905135430 71 192 1.0 5.0 0.00 0.40 0.01 95 1017.4
20260905134417 71 227 2.0 3.0 0.00 0.40 0.01 95 1017.4
20260905133424 70 228 0.0 0.0 0.00 0.40 0.01 95 1017.4
20260905132454 69 228 0.0 0.0 0.00 0.40 0.01 95 1017.5
20260905131417 69 228 0.0 0.0 0.00 0.40 0.01 95 1017.4
20260905130430 69 228 0.0 0.0 0.00 0.40 0.01 95 1017.5
20260905125435 68 229 0.0 0.0 0.00 0.40 0.01 95 1017.7
20260905124421 67 229 0.0 0.0 0.00 0.40 0.01 95 1017.6
20260905123431 67 229 0.0 0.0 0.00 0.40 0.01 95 1017.7
20260905122417 67 229 0.0 0.0 0.00 0.40 0.01 95 1017.6
20260905121425 66 355 0.0 0.0 0.00 0.40 0.01 95 1017.6
20260905120432 65 355 0.0 0.0 0.00 0.40 0.01 95 1017.5
20260905115440 65 355 0.0 0.0 0.00 0.40 0.01 95 1017.5
20260905114427 65 355 0.0 0.0 0.00 0.40 0.01 95 1017.3
20260905113432 64 355 0.0 0.0 0.00 0.40 0.01 95 1017.2
20260905112419 64 355 0.0 0.0 0.00 0.40 0.01 95 1017.1
20260905111430 64 355 0.0 0.0 0.00 0.40 0.01 95 1017.2
20260905110418 64 355 0.0 0.0 0.00 0.40 0.01 95 1017.1
20260905105429 64 355 0.0 0.0 0.00 0.40 0.01 95 1017.1
20260905104417 64 355 0.0 0.0 0.00 0.40 0.01 95 1017.0
20260905103419 64 355 0.0 0.0 0.00 0.40 0.01 95 1017.0
20260905102426 64 355 0.0 0.0 0.00 0.40 0.01 95 1016.9
20260905101453 64 355 0.0 0.0 0.00 0.40 0.01 94 1016.7
20260905100440 64 355 0.0 0.0 0.00 0.40 0.01 95 1016.7
20260905095428 65 355 0.0 0.0 0.00 0.40 0.01 95 1016.6
20260905094415 65 355 0.0 0.0 0.00 0.40 0.01 94 1016.6
20260905093421 65 355 0.0 0.0 0.00 0.40 0.01 94 1016.6
20260905092433 65 355 0.0 0.0 0.00 0.40 0.01 95 1016.6
20260905091419 65 355 0.0 0.0 0.00 0.40 0.01 95 1016.5
20260905090426 65 355 0.0 0.0 0.00 0.40 0.01 94 1016.5